Regional Weather Roundup
Issued by NWS

Home | Current Version | Previous Version | Graphics & Text | Print | Product List | Glossary On
Versions: 1 2 3 4 5 6 7 8 9 10 11 12 13 14 15 16 17 18 19 20 21 22 23 24 25 26 27 28 29 30 31 32 33 34 35 36 37 38 39 40 41 42 43 44 45 46 47 48 49
000
ASUS43 KDMX 201307
RWRIA

WEATHER ROUNDUP FOR IOWA
NATIONAL WEATHER SERVICE DES MOINES IA
800 AM CDT WED AUG 20 2014

NOTE: "FAIR" INDICATES FEW OR NO CLOUDS BELOW 12,000 FEET WITH NO
SIGNIFICANT WEATHER AND/OR OBSTRUCTIONS TO VISIBILITY.

* - THESE STATIONS ARE NOT NWS STATIONS...THUS NOT UNDER NWS
QUALITY CONTROL.  THEY ALSO DO NOT REPORT WEATHER SUCH
AS PRECIPITATION OR FOG.

IAZ001>003-012>014-020>022-031>034-043>046-201400-
   NORTHWEST IOWA

CITY           SKY/WX    TMP DP  RH WIND       PRES   REMARKS
CARROLL *      DRIZZLE   68  68 100 CALM      29.87R
CHEROKEE *     CLOUDY    66  66 100 E13       29.82F
DENISON *      PTSUNNY   70  68  94 E12       29.82F
LE MARS *      SUNNY     70  68  94 E6        29.80R
ORANGE CITY *  DRIZZLE   70  64  83 SE5       29.81S
SHELDON *      PTSUNNY   68  66  94 SE14G21   29.79F
SIOUX CITY     CLOUDY    70  66  87 S9        29.77F
SPENCER        CLOUDY    67  64  90 E5        29.84F
STORM LAKE *   LGT RAIN  66  66 100 CALM      29.90R
$$

IAZ055>058-069>071-079>083-090>094-201400-
   SOUTHWEST IOWA

CITY           SKY/WX    TMP DP  RH WIND       PRES   REMARKS
ATLANTIC *     SUNNY     70  66  88 E6G16     29.87R
AUDUBON *      SUNNY     70  66  88 E3        29.88S
CLARINDA *     SUNNY     73  72  94 CALM      29.85R
COUNCIL BLFS * SUNNY     72  72 100 N8        29.83R
CRESTON *      SUNNY     68  66  94 NE8       29.91R
HARLAN  *        N/A     68  68 100 NE9       29.90R
LAMONI           N/A     71  66  84 E8        29.88R
RED OAK *      CLOUDY    72  70  94 CALM      29.83R
SHENANDOAH *   SUNNY     73  72  94 CALM      29.82R
$$

IAZ047>049-059>061-072>074-084-201400-
   CENTRAL IOWA

CITY           SKY/WX    TMP DP  RH WIND       PRES   REMARKS
AMES           RAIN      68  67  96 E8        29.88R FOG
ANKENY *       LGT RAIN  70  68  94 W7G13     29.91R
CHARITON *     CLOUDY    68  64  88 N16       29.88R
DES MOINES     TSTM      69  67  93 NW9       29.92R FOG
GRINNELL*      CLOUDY    68  64  88 SE5       29.88S
KNOXVILLE *    RAIN      68  66  94 CALM      29.87R
MARSHALLTOWN   CLOUDY    65  64  97 CALM      29.88R
PELLA *        CLOUDY    68  66  94 CALM      29.88S
PERRY *        HVY RAIN  68  66  94 E6        29.84F
$$

IAZ004>006-015-016-023>025-035-036-201400-
   NORTH CENTRAL IOWA

CITY           SKY/WX    TMP DP  RH WIND       PRES   REMARKS
ALGONA *       PTSUNNY   66  64  94 CALM      29.88R
CLARION *      PTSUNNY   66  66 100 CALM      29.87S
ESTHERVILLE    CLOUDY    62  61  96 SE5       29.87S FOG
FORT DODGE *   CLOUDY    66  64  94 CALM      29.87R
MASON CITY     CLOUDY    66  64  93 SW6       29.89R
FOREST CITY *  SUNNY     63  63 100 CALM      29.88S
IOWA FALLS *   CLOUDY    64  63  94 CALM      29.91R
$$

IAZ007>011-017>019-026>030-037>042-050>054-066-201400-
   NORTHEAST IOWA

CITY           SKY/WX    TMP DP  RH WIND       PRES   REMARKS
CEDAR RAPIDS   PTSUNNY   69  66  90 CALM      29.86S
CHARLES CITY * SUNNY     64  64 100 SW5       29.89R
CLINTON *      SUNNY     64  63  94 CALM      29.90R
DECORAH *      SUNNY     63  63 100 CALM      29.86R FOG
DUBUQUE        SUNNY     65  63  93 SW3       29.88R
MONTICELLO *   SUNNY     66  64  94 SW6       29.89R
OELWEIN *      SUNNY     66  64  94 SW6       29.89R
WATERLOO       CLOUDY    68  64  87 CALM      29.86R
$$

IAZ064-065-067-068-078-201400-
   EAST CENTRAL IOWA

CITY           SKY/WX    TMP DP  RH WIND       PRES   REMARKS
DAVENPORT      SUNNY     68  65  90 W3        29.89R
IOWA CITY      CLOUDY    69  66  90 CALM      29.88S
MT. PLEASANT * LGT RAIN N/A N/A N/A NW9       29.89R
MUSCATINE *    MOSUNNY   68  64  88 CALM      29.88R
QUAD CITIES    PTSUNNY   70  64  81 W5        29.87R
$$

IAZ062-063-075>077-085>089-095>099-201400-
   SOUTHEAST IOWA

CITY           SKY/WX    TMP DP  RH WIND       PRES   REMARKS
BURLINGTON     CLOUDY    70  68  93 S5        29.87R
FAIRFIELD *    LGT RAIN  68  66  94 SE8       29.89R
FORT MADISON * CLOUDY    72  70  94 CALM      29.88R
KEOKUK *       LGT RAIN  72  70  94 SE6       29.87R
OSKALOOSA *      N/A     68  66  94 SE9       29.87F
CENTERVILLE *  LGT RAIN  66  66 100 E3        29.90F
OTTUMWA        CLOUDY    69  67  93 E7        29.85F
WASHINGTON *   LGT RAIN  68  68 100 SW13      29.91R
$$

ABBREVIATIONS USED IN REMARKS
   TC - TEMPERATURES IN CELSIUS
  WCI - WIND CHILL INDEX
   HX - HEAT INDEX
  VSB - VISIBILITY
$$



USA.gov is the U.S. government's official web portal to all federal, state and local government web resources and services.